This demonstration page uses our WeatherBlox Daily Observations layout. Learn more.

Left ArrowRight Arrow

Hourly Observations for October 27, 2016

Temp ( °F °C ) Dew Point ( °F °C ) Humidity (%) Winds ( mph kmh ) Pressure ( in mb ) Visibility ( mi km ) Precip ( " mm )
12:25 am 00:25 Hazy 61 16.1 48 8.9 63 63 Calm 30.12 1020 2 3 0.00 0.00
12:49 am 00:49 Clear 61 16 48 9 63 63 E 3 6 30.12 1020 8 13 0.00 0.00
12:53 am 00:53 Clear 60 15.6 48 8.9 65 65 Calm 30.10 1019 8 13 0.00 0.00
1:14 am 01:14 Hazy 59 15 46 8 63 63 Calm 30.15 1021 1 1 0.00 0.00
1:26 am 01:26 Hazy 57 14 46 8 67 67 N 5 7 30.15 1021 2 3 0.00 0.00
1:33 am 01:33 Clear 58 14.4 47 8.3 67 67 NNE 3 6 30.15 1021 10 16 0.00 0.00
1:53 am 01:53 Clear 58 14.4 47 8.3 67 67 NNE 7 11 30.09 1019 10 16 0.00 0.00
2:53 am 02:53 Clear 58 14.4 49 9.4 72 72 N 9 15 30.09 1019 10 16 0.00 0.00
3:53 am 03:53 Clear 57 13.9 49 9.4 74 74 N 8 13 30.08 1019 10 16 0.00 0.00
4:53 am 04:53 Clear 56 13.3 51 10.6 84 84 N 7 11 30.08 1019 10 16 0.00 0.00
5:53 am 05:53 Clear 54 12.2 50 10 87 87 N 9 15 30.09 1019 10 16 0.00 0.00
6:53 am 06:53 Clear 53 11.7 50 10 89 89 NNW 8 13 30.11 1020 10 16 0.00 0.00
7:53 am 07:53 Clear 53 11.7 51 10.6 93 93 NNW 8 13 30.15 1021 9 14 0.00 0.00
8:53 am 08:53 Sunny 57 13.9 53 11.7 87 87 NNW 6 9 30.17 1022 9 14 0.00 0.00
9:53 am 09:53 Mostly Sunny 63 17.2 55 12.8 76 76 N 9 15 30.19 1023 10 16 0.00 0.00
10:53 am 10:53 Sunny 70 21.1 56 13.3 61 61 Calm 30.20 1023 10 16 0.00 0.00
11:53 am 11:53 Sunny 74 23.3 56 13.3 54 54 E 6 9 30.19 1022 10 16 0.00 0.00
12:53 pm 12:53 Sunny 77 25 56 13.3 48 48 S 5 7 30.16 1022 10 16 0.00 0.00
1:53 pm 13:53 Sunny 81 27.2 55 12.8 41 41 undefined N/A 30.13 1020 10 16 0.00 0.00
2:53 pm 14:53 Sunny 83 28.3 51 10.6 33 33 VRB 3 6 30.08 1019 10 16 0.00 0.00
3:53 pm 15:53 Sunny 83 28.3 49 9.4 31 31 undefined N/A 30.06 1018 10 16 0.00 0.00
4:53 pm 16:53 Mostly Sunny 85 29.4 49 9.4 29 29 VRB 5 7 30.04 1017 10 16 0.00 0.00
5:16 pm 17:16 Hazy 84 29 46 8 27 27 S 8 13 29.97 1015 2 3 0.00 0.00
5:24 pm 17:24 Mostly Sunny 84 29 45 7 25 25 SSW 8 13 29.97 1015 10 16 0.00 0.00
5:53 pm 17:53 Mostly Cloudy 84 28.9 46 7.8 27 27 SW 6 9 30.05 1018 10 16 0.00 0.00
6:53 pm 18:53 Sunny 81 27.2 48 8.9 32 32 SSW 6 9 30.06 1018 10 16 0.00 0.00
7:53 pm 19:53 Clear 74 23.3 48 8.9 40 40 SE 7 11 30.08 1019 10 16 0.00 0.00
8:53 pm 20:53 Clear 70 21.1 49 9.4 47 47 SE 7 11 30.09 1019 10 16 0.00 0.00
9:53 pm 21:53 Clear 68 20 49 9.4 51 51 Calm 30.09 1019 10 16 0.00 0.00
10:53 pm 22:53 Clear 67 19.4 50 10 55 55 SSE 8 13 30.08 1019 10 16 0.00 0.00
11:53 pm 23:53 Clear 64 17.8 51 10.6 63 63 SE 7 11 30.09 1019 10 16 0.00 0.00

Powered by AerisWeather